owner,sensor,date,latitude,longitude,vertical_datum,wind_speed,wind_to_direction,wind_speed_of_gust,qcFlag 
COMPS,ioos:station:USF.COMPS:NFB:1,2013-12-03T16:00:00Z,25.0840,-81.0960,6.0,2.76,143.81,3.33,'1111122,1111122,1111122' 
COMPS,ioos:station:USF.COMPS:NFB:1,2013-12-03T16:06:00Z,25.0840,-81.0960,6.0,2.75,147.94,3.03,'1111122,1111122,1111122' 
COMPS,ioos:station:USF.COMPS:NFB:1,2013-12-03T16:12:00Z,25.0840,-81.0960,6.0,2.48,147.79,2.84,'1111122,1111122,1111122' 
COMPS,ioos:station:USF.COMPS:NFB:1,2013-12-03T16:18:00Z,25.0840,-81.0960,6.0,2.15,150.95,2.84,'1111122,1111122,1111122' 
COMPS,ioos:station:USF.COMPS:NFB:1,2013-12-03T16:24:00Z,25.0840,-81.0960,6.0,2.48,151.9,3.23,'1111122,1111122,1111122' 
COMPS,ioos:station:USF.COMPS:NFB:1,2013-12-03T16:30:00Z,25.0840,-81.0960,6.0,2.51,151.41,3.03,'1111122,1111122,1111122' 
COMPS,ioos:station:USF.COMPS:NFB:1,2013-12-03T16:36:00Z,25.0840,-81.0960,6.0,2.44,155.2,3.03,'1111122,1111122,1111122' 
COMPS,ioos:station:USF.COMPS:NFB:1,2013-12-03T16:42:00Z,25.0840,-81.0960,6.0,2.37,161.95,3.03,'1111122,1111122,1111122' 
COMPS,ioos:station:USF.COMPS:NFB:1,2013-12-03T16:48:00Z,25.0840,-81.0960,6.0,2.43,162.7,2.93,'1111122,1111122,1111122' 
COMPS,ioos:station:USF.COMPS:NFB:1,2013-12-03T16:54:00Z,25.0840,-81.0960,6.0,2.12,157.58,2.64,'1111122,1111122,1111122' 
COMPS,ioos:station:USF.COMPS:NFB:1,2013-12-03T17:00:00Z,25.0840,-81.0960,6.0,2.02,145.35,2.74,'1111122,1111122,1111122' 
COMPS,ioos:station:USF.COMPS:NFB:1,2013-12-03T17:06:00Z,25.0840,-81.0960,6.0,2.12,146.22,2.84,'1111122,1111122,1111122' 
COMPS,ioos:station:USF.COMPS:NFB:1,2013-12-03T17:12:00Z,25.0840,-81.0960,6.0,2.06,147.32,3.13,'1111122,1111122,1111122' 
COMPS,ioos:station:USF.COMPS:NFB:1,2013-12-03T17:18:00Z,25.0840,-81.0960,6.0,0.81,118.16,1.66,'1111122,1111122,1111122' 
COMPS,ioos:station:USF.COMPS:NFB:1,2013-12-03T17:24:00Z,25.0840,-81.0960,6.0,0.45,112.55,1.07,'1111122,1111122,1111122' 
COMPS,ioos:station:USF.COMPS:NFB:1,2013-12-03T17:30:00Z,25.0840,-81.0960,6.0,0.41,116.75,1.27,'1111122,1111122,1111122' 
COMPS,ioos:station:USF.COMPS:NFB:1,2013-12-03T17:36:00Z,25.0840,-81.0960,6.0,1.57,178.11,2.15,'1111122,1111122,1111122' 
COMPS,ioos:station:USF.COMPS:NFB:1,2013-12-03T17:42:00Z,25.0840,-81.0960,6.0,1.73,183.38,2.15,'1111122,1111122,1111122' 
COMPS,ioos:station:USF.COMPS:NFB:1,2013-12-03T17:48:00Z,25.0840,-81.0960,6.0,1.76,180.97,2.15,'1111122,1111122,1111122' 
COMPS,ioos:station:USF.COMPS:NFB:1,2013-12-03T17:54:00Z,25.0840,-81.0960,6.0,1.38,157.61,1.76,'1111122,1111122,1111122' 
COMPS,ioos:station:USF.COMPS:NFB:1,2013-12-03T18:00:00Z,25.0840,-81.0960,6.0,1.32,149.98,1.56,'1111122,1111122,1111122' 
COMPS,ioos:station:USF.COMPS:NFB:1,2013-12-03T18:06:00Z,25.0840,-81.0960,6.0,1.21,158.69,1.66,'1111122,1111122,1111122' 
COMPS,ioos:station:USF.COMPS:NFB:1,2013-12-03T18:12:00Z,25.0840,-81.0960,6.0,1.52,162.05,1.86,'1111122,1111122,1111122' 
COMPS,ioos:station:USF.COMPS:NFB:1,2013-12-03T18:18:00Z,25.0840,-81.0960,6.0,1.88,165.74,2.15,'1111122,1111122,1111122' 
COMPS,ioos:station:USF.COMPS:NFB:1,2013-12-03T18:24:00Z,25.0840,-81.0960,6.0,1.52,168.87,1.86,'1111122,1111122,1111122' 
COMPS,ioos:station:USF.COMPS:NFB:1,2013-12-03T18:30:00Z,25.0840,-81.0960,6.0,1.27,171.63,1.76,'1111122,1111122,1111122' 
COMPS,ioos:station:USF.COMPS:NFB:1,2013-12-03T18:36:00Z,25.0840,-81.0960,6.0,1.1,175.5,1.37,'1111122,1111122,1111122' 
COMPS,ioos:station:USF.COMPS:NFB:1,2013-12-03T18:42:00Z,25.0840,-81.0960,6.0,1.3,183.07,1.56,'1111122,1111122,1111122' 
COMPS,ioos:station:USF.COMPS:NFB:1,2013-12-03T18:48:00Z,25.0840,-81.0960,6.0,1.1,187.33,1.37,'1111122,1111122,1111122' 
COMPS,ioos:station:USF.COMPS:NFB:1,2013-12-03T18:54:00Z,25.0840,-81.0960,6.0,0.98,182.85,1.27,'1111122,1111122,1111122' 
COMPS,ioos:station:USF.COMPS:NFB:1,2013-12-03T19:00:00Z,25.0840,-81.0960,6.0,1.06,182.83,1.46,'1111122,1111122,1111122' 
COMPS,ioos:station:USF.COMPS:NFB:1,2013-12-03T19:06:00Z,25.0840,-81.0960,6.0,1.08,178.48,1.27,'1111122,1111122,1111122' 
COMPS,ioos:station:USF.COMPS:NFB:1,2013-12-03T19:12:00Z,25.0840,-81.0960,6.0,0.78,175.19,0.97,'1111122,1111122,1111122' 
COMPS,ioos:station:USF.COMPS:NFB:1,2013-12-03T19:18:00Z,25.0840,-81.0960,6.0,0.66,173.65,0.88,'1111122,1111122,1111122' 
COMPS,ioos:station:USF.COMPS:NFB:1,2013-12-03T19:24:00Z,25.0840,-81.0960,6.0,0.53,170.28,0.78,'1111122,1111122,1111122' 
COMPS,ioos:station:USF.COMPS:NFB:1,2013-12-03T19:30:00Z,25.0840,-81.0960,6.0,0.35,167.54,0.58,'1111122,1111122,1111122' 
COMPS,ioos:station:USF.COMPS:NFB:1,2013-12-03T19:36:00Z,25.0840,-81.0960,6.0,0.09,170.34,0.09,'1111122,1111122,1111122' 
COMPS,ioos:station:USF.COMPS:NFB:1,2013-12-03T19:42:00Z,25.0840,-81.0960,6.0,0.09,169.5,0.09,'1111122,1111122,1111122' 
COMPS,ioos:station:USF.COMPS:NFB:1,2013-12-03T19:48:00Z,25.0840,-81.0960,6.0,0.09,169.44,0.09,'1111122,1111122,1111122' 
COMPS,ioos:station:USF.COMPS:NFB:1,2013-12-03T19:54:00Z,25.0840,-81.0960,6.0,0.09,169.57,0.09,'1111122,1111122,1111122' 
COMPS,ioos:station:USF.COMPS:NFB:1,2013-12-03T20:00:00Z,25.0840,-81.0960,6.0,0.09,192.12,0.09,'1111122,1111122,1111122' 
COMPS,ioos:station:USF.COMPS:NFB:1,2013-12-03T20:06:00Z,25.0840,-81.0960,6.0,0.38,116.98,1.07,'1111122,1111122,1111122' 
COMPS,ioos:station:USF.COMPS:NFB:1,2013-12-03T20:12:00Z,25.0840,-81.0960,6.0,0.17,129.39,0.49,'1111122,1111122,1111122' 
COMPS,ioos:station:USF.COMPS:NFB:1,2013-12-03T20:18:00Z,25.0840,-81.0960,6.0,0.09,83.75,0.09,'1111122,1111122,1111122' 
COMPS,ioos:station:USF.COMPS:NFB:1,2013-12-03T20:24:00Z,25.0840,-81.0960,6.0,0.09,86.91,0.09,'1111122,1111122,1111122' 
COMPS,ioos:station:USF.COMPS:NFB:1,2013-12-03T20:30:00Z,25.0840,-81.0960,6.0,0.1,107.03,0.19,'1111122,1111122,1111122' 
COMPS,ioos:station:USF.COMPS:NFB:1,2013-12-03T20:36:00Z,25.0840,-81.0960,6.0,0.09,93.91,0.09,'1111122,1111122,1111122' 
COMPS,ioos:station:USF.COMPS:NFB:1,2013-12-03T20:42:00Z,25.0840,-81.0960,6.0,0.11,87.41,0.29,'1111122,1111122,1111122' 
COMPS,ioos:station:USF.COMPS:NFB:1,2013-12-03T20:48:00Z,25.0840,-81.0960,6.0,0.18,82.02,0.49,'1111122,1111122,1111122' 
COMPS,ioos:station:USF.COMPS:NFB:1,2013-12-03T20:54:00Z,25.0840,-81.0960,6.0,0.47,77.74,0.58,'1111122,1111122,1111122' 
COMPS,ioos:station:USF.COMPS:NFB:1,2013-12-03T21:00:00Z,25.0840,-81.0960,6.0,0.73,80.78,1.37,'1111122,1111122,1111122' 
COMPS,ioos:station:USF.COMPS:NFB:1,2013-12-03T21:06:00Z,25.0840,-81.0960,6.0,1.34,85.63,1.56,'1111122,1111122,1111122' 
COMPS,ioos:station:USF.COMPS:NFB:1,2013-12-03T21:12:00Z,25.0840,-81.0960,6.0,0.59,101.31,1.07,'1111122,1111122,1111122' 
COMPS,ioos:station:USF.COMPS:NFB:1,2013-12-03T21:18:00Z,25.0840,-81.0960,6.0,0.51,88.73,0.78,'1111122,1111122,1111122' 
COMPS,ioos:station:USF.COMPS:NFB:1,2013-12-03T21:24:00Z,25.0840,-81.0960,6.0,0.45,83.07,0.58,'1111122,1111122,1111122' 
COMPS,ioos:station:USF.COMPS:NFB:1,2013-12-03T21:30:00Z,25.0840,-81.0960,6.0,0.37,85.72,0.49,'1111122,1111122,1111122' 
COMPS,ioos:station:USF.COMPS:NFB:1,2013-12-03T21:36:00Z,25.0840,-81.0960,6.0,0.1,113.91,0.19,'1111122,1111122,1111122' 
COMPS,ioos:station:USF.COMPS:NFB:1,2013-12-03T21:42:00Z,25.0840,-81.0960,6.0,0.09,222.75,0.09,'1111122,1111122,1111122' 
COMPS,ioos:station:USF.COMPS:NFB:1,2013-12-03T21:48:00Z,25.0840,-81.0960,6.0,0.09,252.82,0.09,'1111122,1111122,1111122' 
COMPS,ioos:station:USF.COMPS:NFB:1,2013-12-03T21:54:00Z,25.0840,-81.0960,6.0,0.1,92.69,0.19,'1111122,1111122,1111122' 
COMPS,ioos:station:USF.COMPS:NFB:1,2013-12-03T22:00:00Z,25.0840,-81.0960,6.0,0.09,80.76,0.09,'1111122,1111122,1111122' 
COMPS,ioos:station:USF.COMPS:NFB:1,2013-12-03T22:06:00Z,25.0840,-81.0960,6.0,0.09,87.49,0.09,'1111122,1111122,1111122' 
COMPS,ioos:station:USF.COMPS:NFB:1,2013-12-03T22:12:00Z,25.0840,-81.0960,6.0,0.1,89.14,0.19,'1111122,1111122,1111122' 
COMPS,ioos:station:USF.COMPS:NFB:1,2013-12-03T22:18:00Z,25.0840,-81.0960,6.0,0.84,121.21,1.17,'1111122,1111122,1111122' 
COMPS,ioos:station:USF.COMPS:NFB:1,2013-12-03T22:24:00Z,25.0840,-81.0960,6.0,1.07,138.5,1.27,'1111122,1111122,1111122' 
COMPS,ioos:station:USF.COMPS:NFB:1,2013-12-03T22:30:00Z,25.0840,-81.0960,6.0,0.87,130.41,1.07,'1111122,1111122,1111122' 
COMPS,ioos:station:USF.COMPS:NFB:1,2013-12-03T22:36:00Z,25.0840,-81.0960,6.0,0.81,147.05,0.97,'1111122,1111122,1111122' 
COMPS,ioos:station:USF.COMPS:NFB:1,2013-12-03T22:42:00Z,25.0840,-81.0960,6.0,0.73,147.2,0.97,'1111122,1111122,1111122' 
COMPS,ioos:station:USF.COMPS:NFB:1,2013-12-03T22:48:00Z,25.0840,-81.0960,6.0,0.58,162.07,0.78,'1111122,1111122,1111122' 
COMPS,ioos:station:USF.COMPS:NFB:1,2013-12-03T22:54:00Z,25.0840,-81.0960,6.0,0.19,101.4,0.58,'1111122,1111122,1111122' 
COMPS,ioos:station:USF.COMPS:NFB:1,2013-12-03T23:00:00Z,25.0840,-81.0960,6.0,0.09,84.34,0.09,'1111122,1111122,1111122' 
COMPS,ioos:station:USF.COMPS:NFB:1,2013-12-03T23:06:00Z,25.0840,-81.0960,6.0,0.34,124.04,0.68,'1111122,1111122,1111122' 
COMPS,ioos:station:USF.COMPS:NFB:1,2013-12-03T23:12:00Z,25.0840,-81.0960,6.0,0.19,95.72,0.68,'1111122,1111122,1111122' 
COMPS,ioos:station:USF.COMPS:NFB:1,2013-12-03T23:18:00Z,25.0840,-81.0960,6.0,0.09,83.45,0.09,'1111122,1111122,1111122' 
COMPS,ioos:station:USF.COMPS:NFB:1,2013-12-03T23:24:00Z,25.0840,-81.0960,6.0,0.09,82.82,0.09,'1111122,1111122,1111122' 
COMPS,ioos:station:USF.COMPS:NFB:1,2013-12-03T23:30:00Z,25.0840,-81.0960,6.0,0.17,88.49,0.39,'1111122,1111122,1111122' 
COMPS,ioos:station:USF.COMPS:NFB:1,2013-12-03T23:36:00Z,25.0840,-81.0960,6.0,0.16,86.63,0.39,'1111122,1111122,1111122' 
COMPS,ioos:station:USF.COMPS:NFB:1,2013-12-03T23:42:00Z,25.0840,-81.0960,6.0,0.09,83.89,0.09,'1111122,1111122,1111122' 
COMPS,ioos:station:USF.COMPS:NFB:1,2013-12-03T23:48:00Z,25.0840,-81.0960,6.0,0.18,83.79,0.68,'1111122,1111122,1111122' 
COMPS,ioos:station:USF.COMPS:NFB:1,2013-12-03T23:54:00Z,25.0840,-81.0960,6.0,0.8,89.26,1.27,'1111122,1111122,1111122' 
COMPS,ioos:station:USF.COMPS:NFB:1,2013-12-04T00:00:00Z,25.0840,-81.0960,6.0,1.35,99.55,1.46,'1111122,1111122,1111122' 
COMPS,ioos:station:USF.COMPS:NFB:1,2013-12-04T00:06:00Z,25.0840,-81.0960,6.0,0.63,99.44,1.27,'1111122,1111122,1111122' 
COMPS,ioos:station:USF.COMPS:NFB:1,2013-12-04T00:12:00Z,25.0840,-81.0960,6.0,0.41,109.83,0.58,'1111122,1111122,1111122' 
COMPS,ioos:station:USF.COMPS:NFB:1,2013-12-04T00:18:00Z,25.0840,-81.0960,6.0,0.33,114.72,0.68,'1111122,1111122,1111122' 
COMPS,ioos:station:USF.COMPS:NFB:1,2013-12-04T00:24:00Z,25.0840,-81.0960,6.0,0.88,121.03,1.17,'1111122,1111122,1111122' 
COMPS,ioos:station:USF.COMPS:NFB:1,2013-12-04T00:30:00Z,25.0840,-81.0960,6.0,1.03,129.27,1.27,'1111122,1111122,1111122' 
COMPS,ioos:station:USF.COMPS:NFB:1,2013-12-04T00:36:00Z,25.0840,-81.0960,6.0,1.21,126.23,1.66,'1111122,1111122,1111122' 
COMPS,ioos:station:USF.COMPS:NFB:1,2013-12-04T00:42:00Z,25.0840,-81.0960,6.0,1.72,130.22,1.86,'1111122,1111122,1111122' 
COMPS,ioos:station:USF.COMPS:NFB:1,2013-12-04T00:48:00Z,25.0840,-81.0960,6.0,1.46,138.55,1.76,'1111122,1111122,1111122' 
COMPS,ioos:station:USF.COMPS:NFB:1,2013-12-04T00:54:00Z,25.0840,-81.0960,6.0,0.69,111.56,1.56,'1111122,1111122,1111122' 
COMPS,ioos:station:USF.COMPS:NFB:1,2013-12-04T01:00:00Z,25.0840,-81.0960,6.0,0.83,107.88,1.07,'1111122,1111122,1111122' 
COMPS,ioos:station:USF.COMPS:NFB:1,2013-12-04T01:06:00Z,25.0840,-81.0960,6.0,0.55,100.36,0.97,'1111122,1111122,1111122' 
COMPS,ioos:station:USF.COMPS:NFB:1,2013-12-04T01:12:00Z,25.0840,-81.0960,6.0,0.49,94.61,0.68,'1111122,1111122,1111122' 
COMPS,ioos:station:USF.COMPS:NFB:1,2013-12-04T01:18:00Z,25.0840,-81.0960,6.0,0.57,93.8,0.68,'1111122,1111122,1111122' 
COMPS,ioos:station:USF.COMPS:NFB:1,2013-12-04T01:24:00Z,25.0840,-81.0960,6.0,0.44,91.73,0.68,'1111122,1111122,1111122' 
COMPS,ioos:station:USF.COMPS:NFB:1,2013-12-04T01:30:00Z,25.0840,-81.0960,6.0,0.34,90.11,0.49,'1111122,1111122,1111122' 
COMPS,ioos:station:USF.COMPS:NFB:1,2013-12-04T01:36:00Z,25.0840,-81.0960,6.0,0.45,97.07,0.68,'1111122,1111122,1111122' 
COMPS,ioos:station:USF.COMPS:NFB:1,2013-12-04T01:42:00Z,25.0840,-81.0960,6.0,0.65,97.62,0.78,'1111122,1111122,1111122' 
COMPS,ioos:station:USF.COMPS:NFB:1,2013-12-04T01:48:00Z,25.0840,-81.0960,6.0,0.56,94.61,0.78,'1111122,1111122,1111122' 
COMPS,ioos:station:USF.COMPS:NFB:1,2013-12-04T01:54:00Z,25.0840,-81.0960,6.0,0.27,92.13,0.49,'1111122,1111122,1111122' 
COMPS,ioos:station:USF.COMPS:NFB:1,2013-12-04T02:00:00Z,25.0840,-81.0960,6.0,0.1,86.98,0.19,'1111122,1111122,1111122' 
COMPS,ioos:station:USF.COMPS:NFB:1,2013-12-04T02:06:00Z,25.0840,-81.0960,6.0,0.09,81.92,0.09,'1111122,1111122,1111122' 
COMPS,ioos:station:USF.COMPS:NFB:1,2013-12-04T02:12:00Z,25.0840,-81.0960,6.0,0.09,80.84,0.09,'1111122,1111122,1111122' 
COMPS,ioos:station:USF.COMPS:NFB:1,2013-12-04T02:18:00Z,25.0840,-81.0960,6.0,0.09,85.76,0.09,'1111122,1111122,1111122' 
COMPS,ioos:station:USF.COMPS:NFB:1,2013-12-04T02:24:00Z,25.0840,-81.0960,6.0,0.09,88.12,0.09,'1111122,1111122,1111122' 
COMPS,ioos:station:USF.COMPS:NFB:1,2013-12-04T02:30:00Z,25.0840,-81.0960,6.0,0.09,86.91,0.09,'1111122,1111122,1111122' 
COMPS,ioos:station:USF.COMPS:NFB:1,2013-12-04T02:36:00Z,25.0840,-81.0960,6.0,0.31,89.21,0.58,'1111122,1111122,1111122' 
COMPS,ioos:station:USF.COMPS:NFB:1,2013-12-04T02:42:00Z,25.0840,-81.0960,6.0,0.2,87.72,0.49,'1111122,1111122,1111122' 
COMPS,ioos:station:USF.COMPS:NFB:1,2013-12-04T02:48:00Z,25.0840,-81.0960,6.0,0.22,89.19,0.49,'1111122,1111122,1111122' 
COMPS,ioos:station:USF.COMPS:NFB:1,2013-12-04T02:54:00Z,25.0840,-81.0960,6.0,0.58,96.2,0.88,'1111122,1111122,1111122' 
COMPS,ioos:station:USF.COMPS:NFB:1,2013-12-04T03:00:00Z,25.0840,-81.0960,6.0,1.17,104.39,1.56,'1111122,1111122,1111122' 
COMPS,ioos:station:USF.COMPS:NFB:1,2013-12-04T03:06:00Z,25.0840,-81.0960,6.0,1.72,110.7,1.86,'1111122,1111122,1111122' 
COMPS,ioos:station:USF.COMPS:NFB:1,2013-12-04T03:12:00Z,25.0840,-81.0960,6.0,1.64,108.96,1.95,'1111122,1111122,1111122' 
COMPS,ioos:station:USF.COMPS:NFB:1,2013-12-04T03:18:00Z,25.0840,-81.0960,6.0,1.39,107.52,1.66,'1111122,1111122,1111122' 
COMPS,ioos:station:USF.COMPS:NFB:1,2013-12-04T03:24:00Z,25.0840,-81.0960,6.0,1.31,107.99,1.56,'1111122,1111122,1111122' 
COMPS,ioos:station:USF.COMPS:NFB:1,2013-12-04T03:30:00Z,25.0840,-81.0960,6.0,1.54,110.82,1.76,'1111122,1111122,1111122' 
COMPS,ioos:station:USF.COMPS:NFB:1,2013-12-04T03:36:00Z,25.0840,-81.0960,6.0,1.6,113.78,1.86,'1111122,1111122,1111122' 
COMPS,ioos:station:USF.COMPS:NFB:1,2013-12-04T03:42:00Z,25.0840,-81.0960,6.0,1.75,115.01,2.05,'1111122,1111122,1111122' 
COMPS,ioos:station:USF.COMPS:NFB:1,2013-12-04T03:48:00Z,25.0840,-81.0960,6.0,1.42,108.02,1.86,'1111122,1111122,1111122' 
COMPS,ioos:station:USF.COMPS:NFB:1,2013-12-04T03:54:00Z,25.0840,-81.0960,6.0,1.43,114.24,1.76,'1111122,1111122,1111122' 
COMPS,ioos:station:USF.COMPS:NFB:1,2013-12-04T04:00:00Z,25.0840,-81.0960,6.0,1.15,113.58,1.56,'1111122,1111122,1111122' 
COMPS,ioos:station:USF.COMPS:NFB:1,2013-12-04T04:06:00Z,25.0840,-81.0960,6.0,1.5,115.23,1.76,'1111122,1111122,1111122' 
COMPS,ioos:station:USF.COMPS:NFB:1,2013-12-04T04:12:00Z,25.0840,-81.0960,6.0,1.61,112.44,1.86,'1111122,1111122,1111122' 
COMPS,ioos:station:USF.COMPS:NFB:1,2013-12-04T04:18:00Z,25.0840,-81.0960,6.0,1.6,110.05,2.05,'1111122,1111122,1111122' 
COMPS,ioos:station:USF.COMPS:NFB:1,2013-12-04T04:24:00Z,25.0840,-81.0960,6.0,0.74,101.53,1.27,'1111122,1111122,1111122' 
COMPS,ioos:station:USF.COMPS:NFB:1,2013-12-04T04:30:00Z,25.0840,-81.0960,6.0,0.11,92.46,0.49,'1111122,1111122,1111122' 
COMPS,ioos:station:USF.COMPS:NFB:1,2013-12-04T04:36:00Z,25.0840,-81.0960,6.0,0.09,87.69,0.09,'1111122,1111122,1111122' 
COMPS,ioos:station:USF.COMPS:NFB:1,2013-12-04T04:42:00Z,25.0840,-81.0960,6.0,0.09,92.59,0.09,'1111122,1111122,1111122' 
COMPS,ioos:station:USF.COMPS:NFB:1,2013-12-04T04:48:00Z,25.0840,-81.0960,6.0,0.09,96.99,0.09,'1111122,1111122,1111122' 
COMPS,ioos:station:USF.COMPS:NFB:1,2013-12-04T04:54:00Z,25.0840,-81.0960,6.0,0.1,104.61,0.19,'1111122,1111122,1111122' 
COMPS,ioos:station:USF.COMPS:NFB:1,2013-12-04T05:00:00Z,25.0840,-81.0960,6.0,0.1,109.97,0.19,'1111122,1111122,1111122' 
COMPS,ioos:station:USF.COMPS:NFB:1,2013-12-04T05:06:00Z,25.0840,-81.0960,6.0,0.4,115.21,0.68,'1111122,1111122,1111122' 
COMPS,ioos:station:USF.COMPS:NFB:1,2013-12-04T05:12:00Z,25.0840,-81.0960,6.0,0.36,112.87,0.58,'1111122,1111122,1111122' 
COMPS,ioos:station:USF.COMPS:NFB:1,2013-12-04T05:18:00Z,25.0840,-81.0960,6.0,0.49,109.36,0.78,'1111122,1111122,1111122' 
COMPS,ioos:station:USF.COMPS:NFB:1,2013-12-04T05:24:00Z,25.0840,-81.0960,6.0,0.42,102.69,0.58,'1111122,1111122,1111122' 
COMPS,ioos:station:USF.COMPS:NFB:1,2013-12-04T05:30:00Z,25.0840,-81.0960,6.0,0.48,101.65,0.97,'1111122,1111122,1111122' 
COMPS,ioos:station:USF.COMPS:NFB:1,2013-12-04T05:36:00Z,25.0840,-81.0960,6.0,0.83,113.85,1.37,'1111122,1111122,1111122' 
COMPS,ioos:station:USF.COMPS:NFB:1,2013-12-04T05:42:00Z,25.0840,-81.0960,6.0,0.84,111.84,1.17,'1111122,1111122,1111122' 
COMPS,ioos:station:USF.COMPS:NFB:1,2013-12-04T05:48:00Z,25.0840,-81.0960,6.0,0.81,121.69,1.27,'1111122,1111122,1111122' 
COMPS,ioos:station:USF.COMPS:NFB:1,2013-12-04T05:54:00Z,25.0840,-81.0960,6.0,0.88,112.57,1.27,'1111122,1111122,1111122' 
COMPS,ioos:station:USF.COMPS:NFB:1,2013-12-04T06:00:00Z,25.0840,-81.0960,6.0,1.27,119.48,1.86,'1111122,1111122,1111122' 
COMPS,ioos:station:USF.COMPS:NFB:1,2013-12-04T06:06:00Z,25.0840,-81.0960,6.0,1.32,123.18,1.86,'1111122,1111122,1111122' 
COMPS,ioos:station:USF.COMPS:NFB:1,2013-12-04T06:12:00Z,25.0840,-81.0960,6.0,1.17,109.49,1.56,'1111122,1111122,1111122' 
COMPS,ioos:station:USF.COMPS:NFB:1,2013-12-04T06:18:00Z,25.0840,-81.0960,6.0,1.4,107.91,1.76,'1111122,1111122,1111122' 
COMPS,ioos:station:USF.COMPS:NFB:1,2013-12-04T06:24:00Z,25.0840,-81.0960,6.0,1.04,103.21,1.46,'1111122,1111122,1111122' 
COMPS,ioos:station:USF.COMPS:NFB:1,2013-12-04T06:30:00Z,25.0840,-81.0960,6.0,0.84,106.27,1.37,'1111122,1111122,1111122' 
COMPS,ioos:station:USF.COMPS:NFB:1,2013-12-04T06:36:00Z,25.0840,-81.0960,6.0,1.2,107.24,1.76,'1111122,1111122,1111122' 
COMPS,ioos:station:USF.COMPS:NFB:1,2013-12-04T06:42:00Z,25.0840,-81.0960,6.0,1.06,103.59,1.56,'1111122,1111122,1111122' 
COMPS,ioos:station:USF.COMPS:NFB:1,2013-12-04T06:48:00Z,25.0840,-81.0960,6.0,1.02,104.37,1.37,'1111122,1111122,1111122' 
COMPS,ioos:station:USF.COMPS:NFB:1,2013-12-04T06:54:00Z,25.0840,-81.0960,6.0,1.13,102.49,1.56,'1111122,1111122,1111122' 
COMPS,ioos:station:USF.COMPS:NFB:1,2013-12-04T07:00:00Z,25.0840,-81.0960,6.0,0.75,101.23,1.17,'1111122,1111122,1111122' 
COMPS,ioos:station:USF.COMPS:NFB:1,2013-12-04T07:06:00Z,25.0840,-81.0960,6.0,0.39,98.75,0.78,'1111122,1111122,1111122' 
COMPS,ioos:station:USF.COMPS:NFB:1,2013-12-04T07:12:00Z,25.0840,-81.0960,6.0,0.31,96.1,0.58,'1111122,1111122,1111122' 
COMPS,ioos:station:USF.COMPS:NFB:1,2013-12-04T07:18:00Z,25.0840,-81.0960,6.0,0.1,93.6,0.19,'1111122,1111122,1111122' 
COMPS,ioos:station:USF.COMPS:NFB:1,2013-12-04T07:24:00Z,25.0840,-81.0960,6.0,0.1,95.19,0.19,'1111122,1111122,1111122' 
COMPS,ioos:station:USF.COMPS:NFB:1,2013-12-04T07:30:00Z,25.0840,-81.0960,6.0,0.1,98.43,0.39,'1111122,1111122,1111122' 
COMPS,ioos:station:USF.COMPS:NFB:1,2013-12-04T07:36:00Z,25.0840,-81.0960,6.0,0.11,97.43,0.49,'1111122,1111122,1111122' 
COMPS,ioos:station:USF.COMPS:NFB:1,2013-12-04T07:42:00Z,25.0840,-81.0960,6.0,0.11,91.79,0.29,'1111122,1111122,1111122' 
COMPS,ioos:station:USF.COMPS:NFB:1,2013-12-04T07:48:00Z,25.0840,-81.0960,6.0,0.09,90.12,0.09,'1111122,1111122,1111122' 
COMPS,ioos:station:USF.COMPS:NFB:1,2013-12-04T07:54:00Z,25.0840,-81.0960,6.0,0.1,88.47,0.19,'1111122,1111122,1111122' 
COMPS,ioos:station:USF.COMPS:NFB:1,2013-12-04T08:00:00Z,25.0840,-81.0960,6.0,0.09,86.99,0.09,'1111122,1111122,1111122' 
COMPS,ioos:station:USF.COMPS:NFB:1,2013-12-04T08:06:00Z,25.0840,-81.0960,6.0,0.09,88.91,0.09,'1111122,1111122,1111122' 
COMPS,ioos:station:USF.COMPS:NFB:1,2013-12-04T08:12:00Z,25.0840,-81.0960,6.0,0.15,88.28,0.29,'1111122,1111122,1111122' 
COMPS,ioos:station:USF.COMPS:NFB:1,2013-12-04T08:18:00Z,25.0840,-81.0960,6.0,0.39,90.33,0.58,'1111122,1111122,1111122' 
COMPS,ioos:station:USF.COMPS:NFB:1,2013-12-04T08:24:00Z,25.0840,-81.0960,6.0,0.69,93.28,1.17,'1111122,1111122,1111122' 
COMPS,ioos:station:USF.COMPS:NFB:1,2013-12-04T08:30:00Z,25.0840,-81.0960,6.0,0.99,91.31,1.17,'1111122,1111122,1111122' 
COMPS,ioos:station:USF.COMPS:NFB:1,2013-12-04T08:36:00Z,25.0840,-81.0960,6.0,0.86,92.56,1.07,'1111122,1111122,1111122' 
COMPS,ioos:station:USF.COMPS:NFB:1,2013-12-04T08:42:00Z,25.0840,-81.0960,6.0,0.56,90.57,0.78,'1111122,1111122,1111122' 
COMPS,ioos:station:USF.COMPS:NFB:1,2013-12-04T08:48:00Z,25.0840,-81.0960,6.0,0.58,91.99,0.78,'1111122,1111122,1111122' 
COMPS,ioos:station:USF.COMPS:NFB:1,2013-12-04T08:54:00Z,25.0840,-81.0960,6.0,0.79,91.4,0.97,'1111122,1111122,1111122' 
COMPS,ioos:station:USF.COMPS:NFB:1,2013-12-04T09:00:00Z,25.0840,-81.0960,6.0,0.65,89.19,0.78,'1111122,1111122,1111122' 
COMPS,ioos:station:USF.COMPS:NFB:1,2013-12-04T09:06:00Z,25.0840,-81.0960,6.0,0.5,87.94,0.68,'1111122,1111122,1111122' 
COMPS,ioos:station:USF.COMPS:NFB:1,2013-12-04T09:12:00Z,25.0840,-81.0960,6.0,0.72,89.44,0.97,'1111122,1111122,1111122' 
COMPS,ioos:station:USF.COMPS:NFB:1,2013-12-04T09:18:00Z,25.0840,-81.0960,6.0,0.92,91.27,1.17,'1111122,1111122,1111122' 
COMPS,ioos:station:USF.COMPS:NFB:1,2013-12-04T09:24:00Z,25.0840,-81.0960,6.0,0.97,92.46,1.27,'1111122,1111122,1111122' 
COMPS,ioos:station:USF.COMPS:NFB:1,2013-12-04T09:30:00Z,25.0840,-81.0960,6.0,1.12,92.13,1.27,'1111122,1111122,1111122' 
COMPS,ioos:station:USF.COMPS:NFB:1,2013-12-04T09:36:00Z,25.0840,-81.0960,6.0,1.32,89.2,1.56,'1111122,1111122,1111122' 
COMPS,ioos:station:USF.COMPS:NFB:1,2013-12-04T09:42:00Z,25.0840,-81.0960,6.0,1.21,90.31,1.56,'1111122,1111122,1111122' 
COMPS,ioos:station:USF.COMPS:NFB:1,2013-12-04T09:48:00Z,25.0840,-81.0960,6.0,1.28,92.45,1.46,'1111122,1111122,1111122' 
COMPS,ioos:station:USF.COMPS:NFB:1,2013-12-04T09:54:00Z,25.0840,-81.0960,6.0,1.02,91.15,1.37,'1111122,1111122,1111122' 
COMPS,ioos:station:USF.COMPS:NFB:1,2013-12-04T10:00:00Z,25.0840,-81.0960,6.0,1.03,93.17,1.17,'1111122,1111122,1111122' 
COMPS,ioos:station:USF.COMPS:NFB:1,2013-12-04T10:06:00Z,25.0840,-81.0960,6.0,1.32,97.42,1.56,'1111122,1111122,1111122' 
COMPS,ioos:station:USF.COMPS:NFB:1,2013-12-04T10:12:00Z,25.0840,-81.0960,6.0,1.27,95.79,1.46,'1111122,1111122,1111122' 
COMPS,ioos:station:USF.COMPS:NFB:1,2013-12-04T10:18:00Z,25.0840,-81.0960,6.0,1.47,96.79,1.66,'1111122,1111122,1111122' 
COMPS,ioos:station:USF.COMPS:NFB:1,2013-12-04T10:24:00Z,25.0840,-81.0960,6.0,1.41,99.35,1.66,'1111122,1111122,1111122' 
COMPS,ioos:station:USF.COMPS:NFB:1,2013-12-04T10:30:00Z,25.0840,-81.0960,6.0,1.2,100.46,1.66,'1111122,1111122,1111122' 
COMPS,ioos:station:USF.COMPS:NFB:1,2013-12-04T10:36:00Z,25.0840,-81.0960,6.0,1.06,97.44,1.37,'1111122,1111122,1111122' 
COMPS,ioos:station:USF.COMPS:NFB:1,2013-12-04T10:42:00Z,25.0840,-81.0960,6.0,1.2,99.18,1.46,'1111122,1111122,1111122' 
COMPS,ioos:station:USF.COMPS:NFB:1,2013-12-04T10:48:00Z,25.0840,-81.0960,6.0,1.82,105.03,2.45,'1111122,1111122,1111122' 
COMPS,ioos:station:USF.COMPS:NFB:1,2013-12-04T10:54:00Z,25.0840,-81.0960,6.0,2.49,108.25,3.03,'1111122,1111122,1111122' 
COMPS,ioos:station:USF.COMPS:NFB:1,2013-12-04T11:00:00Z,25.0840,-81.0960,6.0,2.07,104.88,2.35,'1111122,1111122,1111122' 
COMPS,ioos:station:USF.COMPS:NFB:1,2013-12-04T11:06:00Z,25.0840,-81.0960,6.0,2.12,107.29,2.74,'1111122,1111122,1111122' 
COMPS,ioos:station:USF.COMPS:NFB:1,2013-12-04T11:12:00Z,25.0840,-81.0960,6.0,2.25,108.44,2.64,'1111122,1111122,1111122' 
COMPS,ioos:station:USF.COMPS:NFB:1,2013-12-04T11:18:00Z,25.0840,-81.0960,6.0,2.19,109.11,2.54,'1111122,1111122,1111122' 
COMPS,ioos:station:USF.COMPS:NFB:1,2013-12-04T11:24:00Z,25.0840,-81.0960,6.0,2.11,109.67,2.54,'1111122,1111122,1111122' 
COMPS,ioos:station:USF.COMPS:NFB:1,2013-12-04T11:30:00Z,25.0840,-81.0960,6.0,2.0,109.16,2.45,'1111122,1111122,1111122' 
COMPS,ioos:station:USF.COMPS:NFB:1,2013-12-04T11:36:00Z,25.0840,-81.0960,6.0,1.73,103.28,2.25,'1111122,1111122,1111122' 
COMPS,ioos:station:USF.COMPS:NFB:1,2013-12-04T11:42:00Z,25.0840,-81.0960,6.0,1.64,102.2,2.05,'1111122,1111122,1111122' 